Location: Bli��� Lhota
(48.7570°N, 14.0120°E)
Time: 05:54:20
(UTC+00:00)

CENTAUR R/B - Pass Details

Date: 18 September 2020
Orbit: 755 x 1433 km, 63.4° (Epoch: 02 October)

Event Time Altitude Azimuth Distance (km) Brightness Sun altitude
Rises 19:24:09 0° 317° (NW) 4,099 7.0 -21.9°
Reaches altitude 10° 19:26:46 10° 318° (NW) 3,217 6.2 -22.3°
Maximum altitude 19:34:47 89° 48° (NE) 1,367 3.1 -23.4°
Enters shadow 19:38:32 39° 139° (SE) 1,972 3.6 -24.0°
